owner,sensor,date,latitude,longitude,sea_water_turbidity,qcFlag 
NERRS,ioos:station:NOAA.NERRS:rkblhwq:1,2019-08-06T16:45:00Z,26.0257,-81.7332,6.0,11113222 
NERRS,ioos:station:NOAA.NERRS:rkblhwq:1,2019-08-06T17:45:00Z,26.0257,-81.7332,5.0,11113222 
NERRS,ioos:station:NOAA.NERRS:rkblhwq:1,2019-08-06T18:45:00Z,26.0257,-81.7332,4.0,11113222 
NERRS,ioos:station:NOAA.NERRS:rkblhwq:1,2019-08-06T19:45:00Z,26.0257,-81.7332,3.0,11113222 
NERRS,ioos:station:NOAA.NERRS:rkblhwq:1,2019-08-06T20:45:00Z,26.0257,-81.7332,3.0,11113222 
NERRS,ioos:station:NOAA.NERRS:rkblhwq:1,2019-08-06T21:45:00Z,26.0257,-81.7332,3.0,11113222 
NERRS,ioos:station:NOAA.NERRS:rkblhwq:1,2019-08-06T22:45:00Z,26.0257,-81.7332,3.0,11113222 
NERRS,ioos:station:NOAA.NERRS:rkblhwq:1,2019-08-07T00:45:00Z,26.0257,-81.7332,5.0,11113222 
NERRS,ioos:station:NOAA.NERRS:rkblhwq:1,2019-08-07T01:45:00Z,26.0257,-81.7332,7.0,11113222 
NERRS,ioos:station:NOAA.NERRS:rkblhwq:1,2019-08-07T02:45:00Z,26.0257,-81.7332,7.0,11113222 
NERRS,ioos:station:NOAA.NERRS:rkblhwq:1,2019-08-07T03:45:00Z,26.0257,-81.7332,7.0,11113222 
NERRS,ioos:station:NOAA.NERRS:rkblhwq:1,2019-08-07T04:45:00Z,26.0257,-81.7332,6.0,11113222 
NERRS,ioos:station:NOAA.NERRS:rkblhwq:1,2019-08-07T05:45:00Z,26.0257,-81.7332,5.0,11113222 
NERRS,ioos:station:NOAA.NERRS:rkblhwq:1,2019-08-07T07:45:00Z,26.0257,-81.7332,4.0,11113222 
NERRS,ioos:station:NOAA.NERRS:rkblhwq:1,2019-08-07T08:45:00Z,26.0257,-81.7332,3.0,11113222 
NERRS,ioos:station:NOAA.NERRS:rkblhwq:1,2019-08-07T10:45:00Z,26.0257,-81.7332,3.0,11113222 
NERRS,ioos:station:NOAA.NERRS:rkblhwq:1,2019-08-07T11:45:00Z,26.0257,-81.7332,3.0,11113222 
NERRS,ioos:station:NOAA.NERRS:rkblhwq:1,2019-08-07T12:45:00Z,26.0257,-81.7332,6.0,11113222 
NERRS,ioos:station:NOAA.NERRS:rkblhwq:1,2019-08-07T13:45:00Z,26.0257,-81.7332,6.0,11113222 
NERRS,ioos:station:NOAA.NERRS:rkblhwq:1,2019-08-07T14:45:00Z,26.0257,-81.7332,6.0,11113222 
NERRS,ioos:station:NOAA.NERRS:rkblhwq:1,2019-08-07T15:45:00Z,26.0257,-81.7332,8.0,11113222 
NERRS,ioos:station:NOAA.NERRS:rkblhwq:1,2019-08-07T16:45:00Z,26.0257,-81.7332,7.0,11113222 
NERRS,ioos:station:NOAA.NERRS:rkblhwq:1,2019-08-07T17:45:00Z,26.0257,-81.7332,6.0,11113222 
NERRS,ioos:station:NOAA.NERRS:rkblhwq:1,2019-08-07T18:45:00Z,26.0257,-81.7332,5.0,11113222 
NERRS,ioos:station:NOAA.NERRS:rkblhwq:1,2019-08-07T19:45:00Z,26.0257,-81.7332,4.0,11113222 
NERRS,ioos:station:NOAA.NERRS:rkblhwq:1,2019-08-07T20:45:00Z,26.0257,-81.7332,4.0,11113222 
NERRS,ioos:station:NOAA.NERRS:rkblhwq:1,2019-08-07T21:45:00Z,26.0257,-81.7332,3.0,11113222 
NERRS,ioos:station:NOAA.NERRS:rkblhwq:1,2019-08-07T22:45:00Z,26.0257,-81.7332,3.0,11113222 
NERRS,ioos:station:NOAA.NERRS:rkblhwq:1,2019-08-07T23:45:00Z,26.0257,-81.7332,3.0,11113222 
NERRS,ioos:station:NOAA.NERRS:rkblhwq:1,2019-08-08T00:45:00Z,26.0257,-81.7332,3.0,11113222 
NERRS,ioos:station:NOAA.NERRS:rkblhwq:1,2019-08-08T01:45:00Z,26.0257,-81.7332,9.0,11113222 
NERRS,ioos:station:NOAA.NERRS:rkblhwq:1,2019-08-08T02:45:00Z,26.0257,-81.7332,8.0,11113222 
NERRS,ioos:station:NOAA.NERRS:rkblhwq:1,2019-08-08T03:45:00Z,26.0257,-81.7332,7.0,11113222 
NERRS,ioos:station:NOAA.NERRS:rkblhwq:1,2019-08-08T06:45:00Z,26.0257,-81.7332,5.0,11113222 
NERRS,ioos:station:NOAA.NERRS:rkblhwq:1,2019-08-08T07:45:00Z,26.0257,-81.7332,4.0,11113222 
NERRS,ioos:station:NOAA.NERRS:rkblhwq:1,2019-08-08T08:45:00Z,26.0257,-81.7332,3.0,11113222 
NERRS,ioos:station:NOAA.NERRS:rkblhwq:1,2019-08-08T09:45:00Z,26.0257,-81.7332,3.0,11113222 
NERRS,ioos:station:NOAA.NERRS:rkblhwq:1,2019-08-08T10:45:00Z,26.0257,-81.7332,3.0,11113222 
NERRS,ioos:station:NOAA.NERRS:rkblhwq:1,2019-08-08T11:45:00Z,26.0257,-81.7332,4.0,11113222 
NERRS,ioos:station:NOAA.NERRS:rkblhwq:1,2019-08-08T12:45:00Z,26.0257,-81.7332,4.0,11113222 
NERRS,ioos:station:NOAA.NERRS:rkblhwq:1,2019-08-08T13:45:00Z,26.0257,-81.7332,6.0,11113222 
NERRS,ioos:station:NOAA.NERRS:rkblhwq:1,2019-08-08T14:45:00Z,26.0257,-81.7332,8.0,11113222 
NERRS,ioos:station:NOAA.NERRS:rkblhwq:1,2019-08-08T15:45:00Z,26.0257,-81.7332,7.0,11113222 
NERRS,ioos:station:NOAA.NERRS:rkblhwq:1,2019-08-08T16:45:00Z,26.0257,-81.7332,9.0,11113222 
NERRS,ioos:station:NOAA.NERRS:rkblhwq:1,2019-08-08T17:45:00Z,26.0257,-81.7332,8.0,11113222 
NERRS,ioos:station:NOAA.NERRS:rkblhwq:1,2019-08-08T18:45:00Z,26.0257,-81.7332,8.0,11113222 
NERRS,ioos:station:NOAA.NERRS:rkblhwq:1,2019-08-08T19:45:00Z,26.0257,-81.7332,10.0,11111222 
NERRS,ioos:station:NOAA.NERRS:rkblhwq:1,2019-08-08T20:45:00Z,26.0257,-81.7332,5.0,11113222 
NERRS,ioos:station:NOAA.NERRS:rkblhwq:1,2019-08-08T21:45:00Z,26.0257,-81.7332,5.0,11113222 
NERRS,ioos:station:NOAA.NERRS:rkblhwq:1,2019-08-08T22:45:00Z,26.0257,-81.7332,4.0,11113222 
NERRS,ioos:station:NOAA.NERRS:rkblhwq:1,2019-08-08T23:45:00Z,26.0257,-81.7332,5.0,11113222 
NERRS,ioos:station:NOAA.NERRS:rkblhwq:1,2019-08-09T00:45:00Z,26.0257,-81.7332,5.0,11113222 
NERRS,ioos:station:NOAA.NERRS:rkblhwq:1,2019-08-09T01:45:00Z,26.0257,-81.7332,4.0,11113222 
NERRS,ioos:station:NOAA.NERRS:rkblhwq:1,2019-08-09T02:45:00Z,26.0257,-81.7332,4.0,11113222 
NERRS,ioos:station:NOAA.NERRS:rkblhwq:1,2019-08-09T03:45:00Z,26.0257,-81.7332,8.0,11113222 
NERRS,ioos:station:NOAA.NERRS:rkblhwq:1,2019-08-09T04:45:00Z,26.0257,-81.7332,7.0,11113222 
NERRS,ioos:station:NOAA.NERRS:rkblhwq:1,2019-08-09T05:45:00Z,26.0257,-81.7332,6.0,11113222 
NERRS,ioos:station:NOAA.NERRS:rkblhwq:1,2019-08-09T06:45:00Z,26.0257,-81.7332,7.0,11113222 
NERRS,ioos:station:NOAA.NERRS:rkblhwq:1,2019-08-09T07:45:00Z,26.0257,-81.7332,6.0,11113222 
NERRS,ioos:station:NOAA.NERRS:rkblhwq:1,2019-08-09T08:45:00Z,26.0257,-81.7332,4.0,11113222 
NERRS,ioos:station:NOAA.NERRS:rkblhwq:1,2019-08-09T09:45:00Z,26.0257,-81.7332,4.0,11113222 
NERRS,ioos:station:NOAA.NERRS:rkblhwq:1,2019-08-09T10:45:00Z,26.0257,-81.7332,4.0,11113222 
NERRS,ioos:station:NOAA.NERRS:rkblhwq:1,2019-08-09T11:45:00Z,26.0257,-81.7332,4.0,11113222 
NERRS,ioos:station:NOAA.NERRS:rkblhwq:1,2019-08-09T12:45:00Z,26.0257,-81.7332,4.0,11113222 
NERRS,ioos:station:NOAA.NERRS:rkblhwq:1,2019-08-09T13:45:00Z,26.0257,-81.7332,3.0,11113222 
NERRS,ioos:station:NOAA.NERRS:rkblhwq:1,2019-08-09T14:45:00Z,26.0257,-81.7332,6.0,11113222 
NERRS,ioos:station:NOAA.NERRS:rkblhwq:1,2019-08-09T15:45:00Z,26.0257,-81.7332,8.0,11113222 
NERRS,ioos:station:NOAA.NERRS:rkblhwq:1,2019-08-09T16:45:00Z,26.0257,-81.7332,8.0,11113222 
NERRS,ioos:station:NOAA.NERRS:rkblhwq:1,2019-08-09T17:45:00Z,26.0257,-81.7332,10.0,11111222 
NERRS,ioos:station:NOAA.NERRS:rkblhwq:1,2019-08-09T18:45:00Z,26.0257,-81.7332,10.0,11111222 
NERRS,ioos:station:NOAA.NERRS:rkblhwq:1,2019-08-09T19:45:00Z,26.0257,-81.7332,11.0,11131222 
NERRS,ioos:station:NOAA.NERRS:rkblhwq:1,2019-08-09T20:45:00Z,26.0257,-81.7332,8.0,11113222 
NERRS,ioos:station:NOAA.NERRS:rkblhwq:1,2019-08-09T21:45:00Z,26.0257,-81.7332,8.0,11113222 
NERRS,ioos:station:NOAA.NERRS:rkblhwq:1,2019-08-09T22:45:00Z,26.0257,-81.7332,6.0,11113222 
NERRS,ioos:station:NOAA.NERRS:rkblhwq:1,2019-08-09T23:45:00Z,26.0257,-81.7332,6.0,11113222 
NERRS,ioos:station:NOAA.NERRS:rkblhwq:1,2019-08-10T00:45:00Z,26.0257,-81.7332,6.0,11113222 
NERRS,ioos:station:NOAA.NERRS:rkblhwq:1,2019-08-10T01:45:00Z,26.0257,-81.7332,6.0,11113222 
NERRS,ioos:station:NOAA.NERRS:rkblhwq:1,2019-08-10T02:45:00Z,26.0257,-81.7332,5.0,11113222 
NERRS,ioos:station:NOAA.NERRS:rkblhwq:1,2019-08-10T03:45:00Z,26.0257,-81.7332,4.0,11113222 
NERRS,ioos:station:NOAA.NERRS:rkblhwq:1,2019-08-10T04:45:00Z,26.0257,-81.7332,7.0,11113222 
NERRS,ioos:station:NOAA.NERRS:rkblhwq:1,2019-08-10T05:45:00Z,26.0257,-81.7332,8.0,11113222 
NERRS,ioos:station:NOAA.NERRS:rkblhwq:1,2019-08-10T06:45:00Z,26.0257,-81.7332,8.0,11113222 
NERRS,ioos:station:NOAA.NERRS:rkblhwq:1,2019-08-10T07:45:00Z,26.0257,-81.7332,6.0,11113222 
NERRS,ioos:station:NOAA.NERRS:rkblhwq:1,2019-08-10T08:45:00Z,26.0257,-81.7332,6.0,11113222 
NERRS,ioos:station:NOAA.NERRS:rkblhwq:1,2019-08-10T09:45:00Z,26.0257,-81.7332,5.0,11113222 
NERRS,ioos:station:NOAA.NERRS:rkblhwq:1,2019-08-10T10:45:00Z,26.0257,-81.7332,5.0,11113222 
NERRS,ioos:station:NOAA.NERRS:rkblhwq:1,2019-08-10T11:45:00Z,26.0257,-81.7332,6.0,11113222 
NERRS,ioos:station:NOAA.NERRS:rkblhwq:1,2019-08-10T12:45:00Z,26.0257,-81.7332,5.0,11113222 
NERRS,ioos:station:NOAA.NERRS:rkblhwq:1,2019-08-10T13:45:00Z,26.0257,-81.7332,4.0,11113222 
NERRS,ioos:station:NOAA.NERRS:rkblhwq:1,2019-08-10T14:45:00Z,26.0257,-81.7332,4.0,11113222 
NERRS,ioos:station:NOAA.NERRS:rkblhwq:1,2019-08-10T15:45:00Z,26.0257,-81.7332,7.0,11113222 
NERRS,ioos:station:NOAA.NERRS:rkblhwq:1,2019-08-10T16:45:00Z,26.0257,-81.7332,6.0,11113222 
NERRS,ioos:station:NOAA.NERRS:rkblhwq:1,2019-08-10T17:45:00Z,26.0257,-81.7332,12.0,11131222 
NERRS,ioos:station:NOAA.NERRS:rkblhwq:1,2019-08-10T18:45:00Z,26.0257,-81.7332,10.0,11111222 
NERRS,ioos:station:NOAA.NERRS:rkblhwq:1,2019-08-10T19:45:00Z,26.0257,-81.7332,8.0,11113222 
NERRS,ioos:station:NOAA.NERRS:rkblhwq:1,2019-08-10T20:45:00Z,26.0257,-81.7332,8.0,11113222 
NERRS,ioos:station:NOAA.NERRS:rkblhwq:1,2019-08-10T21:45:00Z,26.0257,-81.7332,7.0,11113222 
NERRS,ioos:station:NOAA.NERRS:rkblhwq:1,2019-08-10T22:45:00Z,26.0257,-81.7332,10.0,11111222 
NERRS,ioos:station:NOAA.NERRS:rkblhwq:1,2019-08-10T23:45:00Z,26.0257,-81.7332,7.0,11113222 
NERRS,ioos:station:NOAA.NERRS:rkblhwq:1,2019-08-11T00:45:00Z,26.0257,-81.7332,8.0,11113222 
NERRS,ioos:station:NOAA.NERRS:rkblhwq:1,2019-08-11T01:45:00Z,26.0257,-81.7332,7.0,11113222 
NERRS,ioos:station:NOAA.NERRS:rkblhwq:1,2019-08-11T02:45:00Z,26.0257,-81.7332,7.0,11113222 
NERRS,ioos:station:NOAA.NERRS:rkblhwq:1,2019-08-11T03:45:00Z,26.0257,-81.7332,6.0,11113222 
NERRS,ioos:station:NOAA.NERRS:rkblhwq:1,2019-08-11T04:45:00Z,26.0257,-81.7332,5.0,11113222 
NERRS,ioos:station:NOAA.NERRS:rkblhwq:1,2019-08-11T05:45:00Z,26.0257,-81.7332,8.0,11113222 
NERRS,ioos:station:NOAA.NERRS:rkblhwq:1,2019-08-11T06:45:00Z,26.0257,-81.7332,7.0,11113222 
NERRS,ioos:station:NOAA.NERRS:rkblhwq:1,2019-08-11T07:45:00Z,26.0257,-81.7332,6.0,11113222 
NERRS,ioos:station:NOAA.NERRS:rkblhwq:1,2019-08-11T08:45:00Z,26.0257,-81.7332,6.0,11113222 
NERRS,ioos:station:NOAA.NERRS:rkblhwq:1,2019-08-11T09:45:00Z,26.0257,-81.7332,6.0,11113222 
NERRS,ioos:station:NOAA.NERRS:rkblhwq:1,2019-08-11T10:45:00Z,26.0257,-81.7332,6.0,11113222 
NERRS,ioos:station:NOAA.NERRS:rkblhwq:1,2019-08-11T11:45:00Z,26.0257,-81.7332,6.0,11113222 
NERRS,ioos:station:NOAA.NERRS:rkblhwq:1,2019-08-11T12:45:00Z,26.0257,-81.7332,5.0,11113222 
NERRS,ioos:station:NOAA.NERRS:rkblhwq:1,2019-08-11T13:45:00Z,26.0257,-81.7332,5.0,11113222 
NERRS,ioos:station:NOAA.NERRS:rkblhwq:1,2019-08-11T14:45:00Z,26.0257,-81.7332,4.0,11113222 
NERRS,ioos:station:NOAA.NERRS:rkblhwq:1,2019-08-11T15:45:00Z,26.0257,-81.7332,3.0,11113222 
NERRS,ioos:station:NOAA.NERRS:rkblhwq:1,2019-08-11T16:45:00Z,26.0257,-81.7332,7.0,11113222 
NERRS,ioos:station:NOAA.NERRS:rkblhwq:1,2019-08-11T17:45:00Z,26.0257,-81.7332,6.0,11113222 
NERRS,ioos:station:NOAA.NERRS:rkblhwq:1,2019-08-11T18:45:00Z,26.0257,-81.7332,12.0,11131222 
NERRS,ioos:station:NOAA.NERRS:rkblhwq:1,2019-08-11T19:45:00Z,26.0257,-81.7332,10.0,11111222 
NERRS,ioos:station:NOAA.NERRS:rkblhwq:1,2019-08-11T20:45:00Z,26.0257,-81.7332,9.0,11113222 
NERRS,ioos:station:NOAA.NERRS:rkblhwq:1,2019-08-11T21:45:00Z,26.0257,-81.7332,10.0,11111222 
NERRS,ioos:station:NOAA.NERRS:rkblhwq:1,2019-08-11T22:45:00Z,26.0257,-81.7332,8.0,11113222 
NERRS,ioos:station:NOAA.NERRS:rkblhwq:1,2019-08-11T23:45:00Z,26.0257,-81.7332,7.0,11113222 
NERRS,ioos:station:NOAA.NERRS:rkblhwq:1,2019-08-12T00:45:00Z,26.0257,-81.7332,7.0,11113222 
NERRS,ioos:station:NOAA.NERRS:rkblhwq:1,2019-08-12T01:45:00Z,26.0257,-81.7332,8.0,11113222 
NERRS,ioos:station:NOAA.NERRS:rkblhwq:1,2019-08-12T02:45:00Z,26.0257,-81.7332,8.0,11113222 
NERRS,ioos:station:NOAA.NERRS:rkblhwq:1,2019-08-12T03:45:00Z,26.0257,-81.7332,8.0,11113222 
NERRS,ioos:station:NOAA.NERRS:rkblhwq:1,2019-08-12T04:45:00Z,26.0257,-81.7332,7.0,11113222 
NERRS,ioos:station:NOAA.NERRS:rkblhwq:1,2019-08-12T05:45:00Z,26.0257,-81.7332,6.0,11113222 
NERRS,ioos:station:NOAA.NERRS:rkblhwq:1,2019-08-12T06:45:00Z,26.0257,-81.7332,7.0,11113222 
NERRS,ioos:station:NOAA.NERRS:rkblhwq:1,2019-08-12T07:45:00Z,26.0257,-81.7332,6.0,11113222 
NERRS,ioos:station:NOAA.NERRS:rkblhwq:1,2019-08-12T09:45:00Z,26.0257,-81.7332,7.0,11113222 
NERRS,ioos:station:NOAA.NERRS:rkblhwq:1,2019-08-12T10:45:00Z,26.0257,-81.7332,5.0,11113222 
NERRS,ioos:station:NOAA.NERRS:rkblhwq:1,2019-08-12T11:45:00Z,26.0257,-81.7332,6.0,11113222 
NERRS,ioos:station:NOAA.NERRS:rkblhwq:1,2019-08-12T12:45:00Z,26.0257,-81.7332,7.0,11113222 
NERRS,ioos:station:NOAA.NERRS:rkblhwq:1,2019-08-12T13:45:00Z,26.0257,-81.7332,6.0,11113222 
NERRS,ioos:station:NOAA.NERRS:rkblhwq:1,2019-08-12T14:45:00Z,26.0257,-81.7332,6.0,11113222 
NERRS,ioos:station:NOAA.NERRS:rkblhwq:1,2019-08-12T15:45:00Z,26.0257,-81.7332,5.0,11113222 
NERRS,ioos:station:NOAA.NERRS:rkblhwq:1,2019-08-12T16:45:00Z,26.0257,-81.7332,6.0,11113222 
NERRS,ioos:station:NOAA.NERRS:rkblhwq:1,2019-08-12T17:45:00Z,26.0257,-81.7332,8.0,11113222 
NERRS,ioos:station:NOAA.NERRS:rkblhwq:1,2019-08-12T18:45:00Z,26.0257,-81.7332,7.0,11113222 
NERRS,ioos:station:NOAA.NERRS:rkblhwq:1,2019-08-12T19:45:00Z,26.0257,-81.7332,11.0,11131222 
NERRS,ioos:station:NOAA.NERRS:rkblhwq:1,2019-08-12T20:45:00Z,26.0257,-81.7332,9.0,11113222 
NERRS,ioos:station:NOAA.NERRS:rkblhwq:1,2019-08-12T21:45:00Z,26.0257,-81.7332,11.0,11131222 
NERRS,ioos:station:NOAA.NERRS:rkblhwq:1,2019-08-12T22:45:00Z,26.0257,-81.7332,8.0,11113222 
NERRS,ioos:station:NOAA.NERRS:rkblhwq:1,2019-08-12T23:45:00Z,26.0257,-81.7332,10.0,11111222 
NERRS,ioos:station:NOAA.NERRS:rkblhwq:1,2019-08-13T00:45:00Z,26.0257,-81.7332,9.0,11113222 
NERRS,ioos:station:NOAA.NERRS:rkblhwq:1,2019-08-13T01:45:00Z,26.0257,-81.7332,7.0,11113222 
NERRS,ioos:station:NOAA.NERRS:rkblhwq:1,2019-08-13T02:45:00Z,26.0257,-81.7332,8.0,11113222 
NERRS,ioos:station:NOAA.NERRS:rkblhwq:1,2019-08-13T03:45:00Z,26.0257,-81.7332,8.0,11113222 
NERRS,ioos:station:NOAA.NERRS:rkblhwq:1,2019-08-13T04:45:00Z,26.0257,-81.7332,7.0,11113222 
NERRS,ioos:station:NOAA.NERRS:rkblhwq:1,2019-08-13T05:45:00Z,26.0257,-81.7332,6.0,11113222 
NERRS,ioos:station:NOAA.NERRS:rkblhwq:1,2019-08-13T06:45:00Z,26.0257,-81.7332,5.0,11113222 
NERRS,ioos:station:NOAA.NERRS:rkblhwq:1,2019-08-13T07:45:00Z,26.0257,-81.7332,6.0,11113222 
NERRS,ioos:station:NOAA.NERRS:rkblhwq:1,2019-08-13T08:45:00Z,26.0257,-81.7332,7.0,11113222 
NERRS,ioos:station:NOAA.NERRS:rkblhwq:1,2019-08-13T09:45:00Z,26.0257,-81.7332,7.0,11113222 
NERRS,ioos:station:NOAA.NERRS:rkblhwq:1,2019-08-13T10:45:00Z,26.0257,-81.7332,5.0,11113222 
NERRS,ioos:station:NOAA.NERRS:rkblhwq:1,2019-08-13T11:45:00Z,26.0257,-81.7332,6.0,11113222 
NERRS,ioos:station:NOAA.NERRS:rkblhwq:1,2019-08-13T12:45:00Z,26.0257,-81.7332,5.0,11113222 
NERRS,ioos:station:NOAA.NERRS:rkblhwq:1,2019-08-13T13:45:00Z,26.0257,-81.7332,5.0,11113222 
NERRS,ioos:station:NOAA.NERRS:rkblhwq:1,2019-08-13T14:45:00Z,26.0257,-81.7332,5.0,11113222 
NERRS,ioos:station:NOAA.NERRS:rkblhwq:1,2019-08-13T15:45:00Z,26.0257,-81.7332,4.0,11113222 
NERRS,ioos:station:NOAA.NERRS:rkblhwq:1,2019-08-13T16:45:00Z,26.0257,-81.7332,4.0,11113222 
NERRS,ioos:station:NOAA.NERRS:rkblhwq:1,2019-08-13T17:45:00Z,26.0257,-81.7332,5.0,11113222 
NERRS,ioos:station:NOAA.NERRS:rkblhwq:1,2019-08-13T18:45:00Z,26.0257,-81.7332,7.0,11113222 
NERRS,ioos:station:NOAA.NERRS:rkblhwq:1,2019-08-13T19:45:00Z,26.0257,-81.7332,7.0,11113222 
NERRS,ioos:station:NOAA.NERRS:rkblhwq:1,2019-08-13T20:45:00Z,26.0257,-81.7332,10.0,11111222 
NERRS,ioos:station:NOAA.NERRS:rkblhwq:1,2019-08-13T21:45:00Z,26.0257,-81.7332,12.0,11131222 
NERRS,ioos:station:NOAA.NERRS:rkblhwq:1,2019-08-13T22:45:00Z,26.0257,-81.7332,10.0,11111222 
NERRS,ioos:station:NOAA.NERRS:rkblhwq:1,2019-08-13T23:45:00Z,26.0257,-81.7332,10.0,11111222 
NERRS,ioos:station:NOAA.NERRS:rkblhwq:1,2019-08-14T00:45:00Z,26.0257,-81.7332,7.0,11113222 
NERRS,ioos:station:NOAA.NERRS:rkblhwq:1,2019-08-14T01:45:00Z,26.0257,-81.7332,7.0,11113222 
NERRS,ioos:station:NOAA.NERRS:rkblhwq:1,2019-08-14T02:45:00Z,26.0257,-81.7332,7.0,11113222 
NERRS,ioos:station:NOAA.NERRS:rkblhwq:1,2019-08-14T03:45:00Z,26.0257,-81.7332,6.0,11113222 
NERRS,ioos:station:NOAA.NERRS:rkblhwq:1,2019-08-14T05:45:00Z,26.0257,-81.7332,6.0,11113222 
NERRS,ioos:station:NOAA.NERRS:rkblhwq:1,2019-08-14T06:45:00Z,26.0257,-81.7332,5.0,11113222 
NERRS,ioos:station:NOAA.NERRS:rkblhwq:1,2019-08-14T07:45:00Z,26.0257,-81.7332,8.0,11113222 
NERRS,ioos:station:NOAA.NERRS:rkblhwq:1,2019-08-14T08:45:00Z,26.0257,-81.7332,6.0,11113222 
NERRS,ioos:station:NOAA.NERRS:rkblhwq:1,2019-08-14T09:45:00Z,26.0257,-81.7332,6.0,11113222 
NERRS,ioos:station:NOAA.NERRS:rkblhwq:1,2019-08-14T10:45:00Z,26.0257,-81.7332,5.0,11113222 
NERRS,ioos:station:NOAA.NERRS:rkblhwq:1,2019-08-14T11:45:00Z,26.0257,-81.7332,5.0,11113222 
NERRS,ioos:station:NOAA.NERRS:rkblhwq:1,2019-08-14T12:45:00Z,26.0257,-81.7332,5.0,11113222 
NERRS,ioos:station:NOAA.NERRS:rkblhwq:1,2019-08-14T13:45:00Z,26.0257,-81.7332,5.0,11113222 
NERRS,ioos:station:NOAA.NERRS:rkblhwq:1,2019-08-14T14:45:00Z,26.0257,-81.7332,5.0,11113222 
NERRS,ioos:station:NOAA.NERRS:rkblhwq:1,2019-08-14T15:45:00Z,26.0257,-81.7332,5.0,11113222 
NERRS,ioos:station:NOAA.NERRS:rkblhwq:1,2019-08-14T18:45:00Z,26.0257,-81.7332,6.0,11113222 
NERRS,ioos:station:NOAA.NERRS:rkblhwq:1,2019-08-14T19:45:00Z,26.0257,-81.7332,7.0,11113222 
NERRS,ioos:station:NOAA.NERRS:rkblhwq:1,2019-08-14T20:45:00Z,26.0257,-81.7332,9.0,11113222 
NERRS,ioos:station:NOAA.NERRS:rkblhwq:1,2019-08-14T21:45:00Z,26.0257,-81.7332,10.0,11111222 
NERRS,ioos:station:NOAA.NERRS:rkblhwq:1,2019-08-14T22:45:00Z,26.0257,-81.7332,10.0,11111222 
NERRS,ioos:station:NOAA.NERRS:rkblhwq:1,2019-08-14T23:45:00Z,26.0257,-81.7332,8.0,11113222 
NERRS,ioos:station:NOAA.NERRS:rkblhwq:1,2019-08-15T00:45:00Z,26.0257,-81.7332,9.0,11113222 
NERRS,ioos:station:NOAA.NERRS:rkblhwq:1,2019-08-15T01:45:00Z,26.0257,-81.7332,8.0,11113222 
NERRS,ioos:station:NOAA.NERRS:rkblhwq:1,2019-08-15T02:45:00Z,26.0257,-81.7332,7.0,11113222 
NERRS,ioos:station:NOAA.NERRS:rkblhwq:1,2019-08-15T03:45:00Z,26.0257,-81.7332,7.0,11113222 
NERRS,ioos:station:NOAA.NERRS:rkblhwq:1,2019-08-15T05:45:00Z,26.0257,-81.7332,6.0,11113222 
NERRS,ioos:station:NOAA.NERRS:rkblhwq:1,2019-08-15T06:45:00Z,26.0257,-81.7332,6.0,11113222 
NERRS,ioos:station:NOAA.NERRS:rkblhwq:1,2019-08-15T07:45:00Z,26.0257,-81.7332,6.0,11113222 
NERRS,ioos:station:NOAA.NERRS:rkblhwq:1,2019-08-15T08:45:00Z,26.0257,-81.7332,7.0,11113222 
NERRS,ioos:station:NOAA.NERRS:rkblhwq:1,2019-08-15T09:45:00Z,26.0257,-81.7332,9.0,11113222 
NERRS,ioos:station:NOAA.NERRS:rkblhwq:1,2019-08-15T10:45:00Z,26.0257,-81.7332,7.0,11113222 
NERRS,ioos:station:NOAA.NERRS:rkblhwq:1,2019-08-15T11:45:00Z,26.0257,-81.7332,7.0,11113222 
NERRS,ioos:station:NOAA.NERRS:rkblhwq:1,2019-08-15T12:45:00Z,26.0257,-81.7332,6.0,11113222 
NERRS,ioos:station:NOAA.NERRS:rkblhwq:1,2019-08-15T13:45:00Z,26.0257,-81.7332,6.0,11113222 
NERRS,ioos:station:NOAA.NERRS:rkblhwq:1,2019-08-15T14:45:00Z,26.0257,-81.7332,6.0,11113222 
NERRS,ioos:station:NOAA.NERRS:rkblhwq:1,2019-08-15T15:45:00Z,26.0257,-81.7332,6.0,11113222 
NERRS,ioos:station:NOAA.NERRS:rkblhwq:1,2019-08-15T16:45:00Z,26.0257,-81.7332,5.0,11113222 
NERRS,ioos:station:NOAA.NERRS:rkblhwq:1,2019-08-15T17:45:00Z,26.0257,-81.7332,5.0,11113222 
NERRS,ioos:station:NOAA.NERRS:rkblhwq:1,2019-08-15T18:45:00Z,26.0257,-81.7332,4.0,11113222 
NERRS,ioos:station:NOAA.NERRS:rkblhwq:1,2019-08-15T19:45:00Z,26.0257,-81.7332,6.0,11113222 
NERRS,ioos:station:NOAA.NERRS:rkblhwq:1,2019-08-15T20:45:00Z,26.0257,-81.7332,8.0,11113222 
NERRS,ioos:station:NOAA.NERRS:rkblhwq:1,2019-08-15T21:45:00Z,26.0257,-81.7332,9.0,11113222 
NERRS,ioos:station:NOAA.NERRS:rkblhwq:1,2019-08-15T22:45:00Z,26.0257,-81.7332,12.0,11131222 
NERRS,ioos:station:NOAA.NERRS:rkblhwq:1,2019-08-15T23:45:00Z,26.0257,-81.7332,11.0,11131222 
NERRS,ioos:station:NOAA.NERRS:rkblhwq:1,2019-08-16T00:45:00Z,26.0257,-81.7332,9.0,11113222 
NERRS,ioos:station:NOAA.NERRS:rkblhwq:1,2019-08-16T01:45:00Z,26.0257,-81.7332,6.0,11113222 
NERRS,ioos:station:NOAA.NERRS:rkblhwq:1,2019-08-16T02:45:00Z,26.0257,-81.7332,7.0,11113222 
NERRS,ioos:station:NOAA.NERRS:rkblhwq:1,2019-08-16T03:45:00Z,26.0257,-81.7332,8.0,11113222 
NERRS,ioos:station:NOAA.NERRS:rkblhwq:1,2019-08-16T05:45:00Z,26.0257,-81.7332,8.0,11113222 
NERRS,ioos:station:NOAA.NERRS:rkblhwq:1,2019-08-16T06:45:00Z,26.0257,-81.7332,7.0,11113222 
NERRS,ioos:station:NOAA.NERRS:rkblhwq:1,2019-08-16T07:45:00Z,26.0257,-81.7332,6.0,11113222 
NERRS,ioos:station:NOAA.NERRS:rkblhwq:1,2019-08-16T08:45:00Z,26.0257,-81.7332,11.0,11131222 
NERRS,ioos:station:NOAA.NERRS:rkblhwq:1,2019-08-16T09:45:00Z,26.0257,-81.7332,8.0,11113222 
NERRS,ioos:station:NOAA.NERRS:rkblhwq:1,2019-08-16T10:45:00Z,26.0257,-81.7332,9.0,11113222 
NERRS,ioos:station:NOAA.NERRS:rkblhwq:1,2019-08-16T11:45:00Z,26.0257,-81.7332,7.0,11113222 
NERRS,ioos:station:NOAA.NERRS:rkblhwq:1,2019-08-16T18:45:00Z,26.0257,-81.7332,5.0,11113222 
NERRS,ioos:station:NOAA.NERRS:rkblhwq:1,2019-08-16T19:45:00Z,26.0257,-81.7332,5.0,11113222 
NERRS,ioos:station:NOAA.NERRS:rkblhwq:1,2019-08-16T20:45:00Z,26.0257,-81.7332,6.0,11113222 
NERRS,ioos:station:NOAA.NERRS:rkblhwq:1,2019-08-16T21:45:00Z,26.0257,-81.7332,9.0,11113222 
NERRS,ioos:station:NOAA.NERRS:rkblhwq:1,2019-08-16T22:45:00Z,26.0257,-81.7332,9.0,11113222 
NERRS,ioos:station:NOAA.NERRS:rkblhwq:1,2019-08-16T23:45:00Z,26.0257,-81.7332,12.0,11131222 
NERRS,ioos:station:NOAA.NERRS:rkblhwq:1,2019-08-17T00:45:00Z,26.0257,-81.7332,12.0,11131222 
NERRS,ioos:station:NOAA.NERRS:rkblhwq:1,2019-08-17T01:45:00Z,26.0257,-81.7332,9.0,11113222 
NERRS,ioos:station:NOAA.NERRS:rkblhwq:1,2019-08-17T03:45:00Z,26.0257,-81.7332,7.0,11113222 
NERRS,ioos:station:NOAA.NERRS:rkblhwq:1,2019-08-17T05:45:00Z,26.0257,-81.7332,8.0,11113222 
NERRS,ioos:station:NOAA.NERRS:rkblhwq:1,2019-08-17T06:45:00Z,26.0257,-81.7332,7.0,11113222 
NERRS,ioos:station:NOAA.NERRS:rkblhwq:1,2019-08-17T07:45:00Z,26.0257,-81.7332,7.0,11113222 
NERRS,ioos:station:NOAA.NERRS:rkblhwq:1,2019-08-17T08:45:00Z,26.0257,-81.7332,8.0,11113222 
NERRS,ioos:station:NOAA.NERRS:rkblhwq:1,2019-08-17T09:45:00Z,26.0257,-81.7332,11.0,11131222 
NERRS,ioos:station:NOAA.NERRS:rkblhwq:1,2019-08-17T10:45:00Z,26.0257,-81.7332,10.0,11111222 
NERRS,ioos:station:NOAA.NERRS:rkblhwq:1,2019-08-17T11:45:00Z,26.0257,-81.7332,11.0,11131222 
NERRS,ioos:station:NOAA.NERRS:rkblhwq:1,2019-08-17T12:45:00Z,26.0257,-81.7332,13.0,11131222 
NERRS,ioos:station:NOAA.NERRS:rkblhwq:1,2019-08-17T13:45:00Z,26.0257,-81.7332,8.0,11113222 
NERRS,ioos:station:NOAA.NERRS:rkblhwq:1,2019-08-17T14:45:00Z,26.0257,-81.7332,7.0,11113222 
NERRS,ioos:station:NOAA.NERRS:rkblhwq:1,2019-08-17T15:45:00Z,26.0257,-81.7332,7.0,11113222 
NERRS,ioos:station:NOAA.NERRS:rkblhwq:1,2019-08-17T16:45:00Z,26.0257,-81.7332,8.0,11113222 
NERRS,ioos:station:NOAA.NERRS:rkblhwq:1,2019-08-17T17:45:00Z,26.0257,-81.7332,7.0,11113222 
NERRS,ioos:station:NOAA.NERRS:rkblhwq:1,2019-08-17T18:45:00Z,26.0257,-81.7332,6.0,11113222 
NERRS,ioos:station:NOAA.NERRS:rkblhwq:1,2019-08-17T19:45:00Z,26.0257,-81.7332,5.0,11113222 
NERRS,ioos:station:NOAA.NERRS:rkblhwq:1,2019-08-17T20:45:00Z,26.0257,-81.7332,11.0,11131222 
NERRS,ioos:station:NOAA.NERRS:rkblhwq:1,2019-08-17T21:45:00Z,26.0257,-81.7332,11.0,11131222 
NERRS,ioos:station:NOAA.NERRS:rkblhwq:1,2019-08-17T22:45:00Z,26.0257,-81.7332,11.0,11131222 
NERRS,ioos:station:NOAA.NERRS:rkblhwq:1,2019-08-17T23:45:00Z,26.0257,-81.7332,11.0,11131222 
NERRS,ioos:station:NOAA.NERRS:rkblhwq:1,2019-08-18T00:45:00Z,26.0257,-81.7332,9.0,11113222 
NERRS,ioos:station:NOAA.NERRS:rkblhwq:1,2019-08-18T01:45:00Z,26.0257,-81.7332,9.0,11113222 
NERRS,ioos:station:NOAA.NERRS:rkblhwq:1,2019-08-18T02:45:00Z,26.0257,-81.7332,9.0,11113222 
NERRS,ioos:station:NOAA.NERRS:rkblhwq:1,2019-08-18T03:45:00Z,26.0257,-81.7332,9.0,11113222 
NERRS,ioos:station:NOAA.NERRS:rkblhwq:1,2019-08-18T05:45:00Z,26.0257,-81.7332,8.0,11113222 
NERRS,ioos:station:NOAA.NERRS:rkblhwq:1,2019-08-18T06:45:00Z,26.0257,-81.7332,7.0,11113222 